Flag for Norway Weather past 2 weeks in Namsos, Norway

Now
54 °F

Light rain. Partly sunny.


Feels Like: 53 °F
Forecast: 50 / 58 °F
Wind: 3 mph from North

Location: Namsos Lufthavn

Current Time: Jul 7, 2015 at 6:42:57 AM

Latest Report: Jul 7, 2015 at 5:50 AM


Visibility: N/A

Pressure: 29.45 "Hg

Humidity: 88%

Dew point: 50 °F

Location of NamsosLocation

Historic Weather in Namsos — Graph

°F

Namsos temperature yesterday

Maximum temperature yesterday: 70 °F (at 12:50 PM)
Minimum temperature yesterday: 57 °F (at 6:20 PM)
Average temperature yesterday: 63 °F

Past Weeks' High & Low Weather Summary

 TemperatureHumidityPressure
High75 °F (Jul 2, 1:20 PM)100% (Jun 25, 9:50 PM)30.27 "Hg (Jun 25, 9:50 PM)
Low46 °F (Jun 25, 10:50 AM)41% (Jul 5, 4:20 PM)29.50 "Hg (Jul 6, 9:50 PM)
Average57 °F75%29.96 "Hg
* Reported Jun 21 9:20 PM — Jul 6 9:50 PM, Namsos, Weather by CustomWeather, © 2015

Note: Actual official high and low records may vary slightly from our data, if they occured in-between our weather recording intervals... More about our weather records

Advertising

Namsos weather history for previous 24 hours

 ConditionsComfort  
Time TempWeatherWind HumidityBarometerVisibility
9:50 PM
Mon, Jul 6
57 °FLight rain. Partly sunny.9 mph88%29.50 "HgN/A
9:20 PM57 °FLight rain. Partly sunny.12 mph88%29.53 "HgN/A
8:50 PM57 °FLight rain. Partly sunny.13 mph88%29.53 "HgN/A
8:20 PM57 °FLight rain. Broken clouds.12 mph94%29.53 "HgN/A
7:50 PM57 °FLight rain. Broken clouds.12 mph94%29.53 "HgN/A
7:20 PM57 °FRain. Broken clouds.10 mph94%29.56 "HgN/A
6:50 PM59 °FScattered showers. Broken clouds.8 mph88%29.56 "HgN/A
6:20 PM57 °FBroken clouds.12 mph94%N/AN/A
5:50 PM61 °FScattered showers. Broken clouds.14 mph83%29.56 "HgN/A
5:20 PM61 °FBroken clouds.N/A83%29.56 "HgN/A
4:50 PM63 °FBroken clouds.13 mph77%29.59 "HgN/A
4:20 PM63 °FBroken clouds.13 mph77%29.59 "HgN/A
3:50 PM63 °FBroken clouds.10 mph83%29.59 "HgN/A
2:50 PM61 °FLight rain. Cloudy.13 mph83%29.62 "HgN/A
2:20 PM64 °FBroken clouds.13 mph68%29.62 "HgN/A
1:50 PM68 °FPassing clouds.14 mph60%29.62 "HgN/A
1:20 PM70 °FPassing clouds.17 mph60%29.62 "HgN/A
12:50 PM70 °FPassing clouds.17 mph60%29.62 "HgN/A
12:20 PM66 °FSunny.20 mph64%29.65 "Hg10 mi
11:50 AM68 °FSunny.16 mph60%29.65 "Hg10 mi
11:20 AM68 °FSunny.18 mph60%29.65 "Hg10 mi
10:50 AM66 °FSunny.18 mph64%29.68 "Hg10 mi
10:20 AM66 °FSunny.21 mph64%29.68 "Hg10 mi
9:50 AM66 °FSunny.21 mph64%29.68 "Hg10 mi
9:20 AM66 °FSunny.21 mph64%29.71 "Hg10 mi
8:50 AM64 °FSunny.21 mph68%29.71 "Hg10 mi
8:20 AM64 °FSunny.18 mph68%29.71 "Hg10 mi
7:20 AM64 °FSunny.16 mph68%29.74 "Hg10 mi
6:50 AM63 °FSunny.16 mph73%29.77 "Hg10 mi
6:20 AM63 °FSunny.15 mph73%29.77 "Hg10 mi
Weather by CustomWeather, © 2015

See weather overviewHow to use our weather pages